SIT-2086

Last updated on Mon Nov 03 2025 00:03:22 GMT+0000 (Coordinated Universal Time)

1 61764U 24199AF 25306.57225869 .00019016 00000+0 46961-3 0 9994 2 61764 97.3282 175.7209 0008861 26.7997 333.3705 15.40507403 99406
UTC large
Height (km)
Speed (km/s)
/
Latitude / Longitude
Inclination (degrees)
Orbital Period (minutes)
Azimuth
Elevation
Range (km)
Doppler Factor

Next 0 passes for location: London (51.5072 / 0.1276)

Sorry there are no passes over London.